Hourly Data Report for October 27, 2015

All times are specified in Local Standard Time (LST). Add 1 hour to adjust for Daylight Saving Time where and when it is observed.

PETAWAWA AWOS 2
ONTARIO

45°57'00.000" N
77°19'00.000" W
130.10 m
6106396
71625
YWA

Download Data

Hourly Data (October 2015)
Hourly Data Report for October 27, 2015
Temp Definition
°C
Dew Point Temp Definition
°C
Rel Hum Definition
%
Wind Dir Definition
10's deg

Wind Spd Definition
km/h
Visibility Definition
km
Stn Press Definition
kPa
Hmdx Definition


Wind Chill Definition


Weather Definition


TIME
00:00 -1.9 -3.1 92   0 14.5 101.68     LegendNANA
01:00 -2.2 -3.7 89 19 4 14.5 101.69   -4 LegendNANA
02:00 -1.9 -3.0 92   0 14.5 101.67     LegendNANA
03:00 -2.6 -3.8 91 25 4 14.5 101.68   -4 LegendNANA
04:00 -3.5 -4.4 94 26 4 14.5 101.72   -5 LegendNANA
05:00 -3.3 -4.4 92   0 14.5 101.74     LegendNANA
06:00 -2.6 -3.6 93 32 4 14.5 101.74   -4 LegendNANA
07:00 -3.6 -4.6 93   0 14.5 101.80     LegendNANA
08:00 -1.7 -2.5 94   0 1.8 101.85     LegendNANA
09:00 1.7 1.0 95   0 14.5 101.91     LegendNANA
10:00 4.9 1.7 80 14 4 14.5 101.88     LegendNANA
11:00 6.6 2.9 77 11 4 14.5 101.88     Drizzle
12:00 7.7 2.7 71 6 7 14.5 101.82     LegendNANA
13:00 9.7 2.2 60 9 7 14.5 101.72     LegendNANA
14:00 10.8 2.7 57 7 7 14.5 101.65     LegendNANA
15:00 10.5 1.2 52 10 6 14.5 101.59     LegendNANA
16:00 10.1 2.1 58 7 4 14.5 101.59     LegendNANA
17:00 8.0 1.9 65   0 14.5 101.57     LegendNANA
18:00 4.8 1.9 82 3 4 14.5 101.55     LegendNANA
19:00 1.9 0.5 90   0 14.5 101.55     LegendNANA
20:00 1.4 0.2 92   0 14.5 101.54     LegendNANA
21:00 -0.1 -0.9 94   0 14.5 101.53     LegendNANA
22:00 5.4 2.3 80 15 4 14.5 101.51     LegendNANA
23:00 5.1 2.3 82 12 7 14.5 101.48     LegendNANA

Notes on Data Quality.

Legend

  • E = Estimated
  • M = Missing
  • NA = Not Available
  • ‡ = Partner data that is not subject to review by the National Climate Archives
Date modified: